Back to catalog

STARLINK-30088

AliveCommunicationsVLEO
NORAD 57462·PAYLOAD·🇺🇸 United States

Launched Jul 28, 2023 from Cape Canaveral Space Force Station

Loading…

Next Passes (next 24 hours)

TLE

FreshSource: CelesTrak SupGP

Epoch: Sep 14, 2026, 13:44 UTC

1 57462C 23107F   26257.57270833  .00021254  00000+0  76974-3 0  2570
2 57462  43.0040 349.6591 0001766 269.1840   4.5305 15.27570282    11

Track STARLINK-30088 in real time with AllMySat

Download on the App Store